Weather - Helsinki Query any day in the database

Current weather  

Weather data for a selected day (2006-01-01 -2020-10-31)
Enter date:     <-     scroll days         ->
day curves
Low temperature°C -14.008:50
High temperature°C -9.014:20
Low wind chill°C -21.508:50
Average temperature°C -11.3 
High wind speed (10 min) m/s 8.001:50
Low pressurehPa 1039.007:20
High pressurehPa 1041.014:50
Low R.H% 6615:50
High R.H% 8510:50
Day weather data as a table
Date Time Temp
°C
Chill
°C
Pressure
hPA
Wind
m/s
Hum
%
Precip
mm
2014-01-30 23:50:00 -12.0  -19.9  1040.0 5.0 72 -
2014-01-30 23:20:00 -12.0  -19.9  1040.0 5.0 72 -
2014-01-30 22:50:00 -12.0  -19.9  1040.0 5.0 78 -
2014-01-30 22:20:00 -12.0  -19.9  1040.0 5.0 78 -
2014-01-30 21:50:00 -12.0  -19.9  1040.0 5.0 78 -
2014-01-30 21:20:00 -12.0  -19.1  1040.0 4.0 78 -
2014-01-30 20:50:00 -12.0  -19.1  1040.0 4.0 78 -
2014-01-30 20:20:00 -11.0  -17.8  1040.0 4.0 72 -
2014-01-30 19:50:00 -11.0  -18.7  1040.0 5.0 72 -
2014-01-30 19:20:00 -12.0  -19.9  1040.0 5.0 78 -
2014-01-30 18:50:00 -13.0  -21.2  1040.0 5.0 78 -
2014-01-30 18:20:00 -12.0  -19.9  1040.0 5.0 78 -
2014-01-30 17:50:00 -13.0  -19.1  1040.0 3.0 78 -
2014-01-30 17:20:00 -12.0  -17.9  1040.0 3.0 78 -
2014-01-30 16:50:00 -11.0  -17.8  1040.0 4.0 72 -
2014-01-30 16:20:00 -11.0  -17.8  1040.0 4.0 72 -
2014-01-30 15:50:00 -10.0  -17.4  1040.0 5.0 66 -
2014-01-30 15:20:00 -10.0  -17.4  1040.0 5.0 72 -
2014-01-30 14:50:00 -10.0  -18.2  1041.0 6.0 72 -
2014-01-30 14:20:00 -9.0  -17.5  1040.0 7.0 67 -
2014-01-30 13:50:00 -10.0  -18.8  1040.0 7.0 72 -
2014-01-30 13:20:00 -10.0  -18.8  1041.0 7.0 72 -
2014-01-30 12:50:00 -9.0  -17.5  1041.0 7.0 67 -
2014-01-30 12:20:00 -9.0  -17.5  1040.0 7.0 67 -
2014-01-30 11:50:00 -9.0  -17.5  1040.0 7.0 67 -
2014-01-30 11:20:00 -10.0  -18.2  1040.0 6.0 78 -
2014-01-30 10:50:00 -11.0  -19.4  1040.0 6.0 85 -
2014-01-30 10:20:00 -11.0  -19.4  1040.0 6.0 72 -
2014-01-30 09:50:00 -12.0  -19.1  1040.0 4.0 78 -
2014-01-30 09:20:00 -13.0  -20.3  1040.0 4.0 78 -
2014-01-30 08:50:00 -14.0  -21.5  1040.0 4.0 84 -
2014-01-30 08:20:00 -13.0  -20.3  1040.0 4.0 84 -
2014-01-30 07:50:00 -13.0  -20.3  1040.0 4.0 84 -
2014-01-30 07:20:00 -12.0  -19.1  1039.0 4.0 78 -
2014-01-30 06:50:00 -13.0  -20.3  1039.0 4.0 84 -
2014-01-30 06:20:00 -13.0  -21.2  1039.0 5.0 84 -
2014-01-30 05:50:00 -12.0  -19.9  1040.0 5.0 85 -
2014-01-30 05:20:00 -12.0  -19.9  1040.0 5.0 85 -
2014-01-30 04:50:00 -11.0  -19.4  1040.0 6.0 85 -
2014-01-30 04:20:00 -11.0  -20.1  1040.0 7.0 85 -
2014-01-30 03:50:00 -11.0  -19.4  1040.0 6.0 85 -
2014-01-30 03:20:00 -11.0  -19.4  1040.0 6.0 85 -
2014-01-30 02:50:00 -11.0  -19.4  1040.0 6.0 85 -
2014-01-30 02:20:00 -10.0  -17.4  1040.0 5.0 78 -
2014-01-30 01:50:00 -10.0  -19.3  1040.0 8.0 78 -
2014-01-30 01:20:00 -10.0  -19.3  1040.0 8.0 78 -
2014-01-30 00:50:00 -10.0  -18.8  1040.0 7.0 78 -
2014-01-30 00:20:00 -10.0  -18.2  1040.0 6.0 78 -
Unit conversions: